User: anonymous   Login
Location: Unspecified
(0.0000°N, 0.0000°E)
Time: 07:45:09
(UTC+00:00)
Language:

STARLINK-31917 - Orbit

View from above orbital plane
View from above orbital plane
View from above satellite
View from above satellite

Ground track
Ground track

The orbit is defined by the following mean orbital elements,

1 59669U          26145.52324554 +.00000000 +00000-0 +11714-3 0 00003
2 59669  42.9991 327.8896 0001079 269.6192  90.4536 15.27582322    00
Epoch (UTC): 25 May 2026 12:33:28
Eccentricity: 0.0001079
inclination: 42.9991°
perigee height: 482 km
apogee height: 484 km
right ascension of ascending node: 327.8896°
argument of perigee: 269.6192°
revolutions per day: 15.27582322
mean anomaly at epoch: 90.4536°

The dashed part of the orbit path shows where the satellite is in the earth's shadow,  

DLR